OPS 5712 (P/L 152)

Satellite information

Favourite Embed

Satellite Type and Status

PAYLOADIN ORBIT

Key statistics

Satellite OPS 5712 (P/L 152) at a glance.

Uptime

21222

Days in orbit

Revolutions

≈ 14.0

Per day

Orbit

LEO

Low Earth Orbit

Inclination

70.0

Latest

Satellite identification and parameters

Extended collection of information and parameters for OPS 5712 (P/L 152).

Object identification

Identified? True

Debris? False

Object name: OPS 5712 (P/L 152)

International designator: 1967-053G

Object number (NORAD): 2873

Object ID (CCSDS): 2873

Country: UNITED STATES OF AMERICA (US)

Current information (Y/N): Y

RCS size: MEDIUM

Orbital parameters

Period: 102.973 minutes

Inclination: 69.9747 deg

SMA: 7277.404 km

Apoapsis: 906.583 km

Periapsis: 891.954 km

RAAN: 74.2664 deg

Eccentricy: 0.0010051

Argument of periapsis: 251.3478 deg

Mean anomaly: 193.8004 deg

Mean motion: 13.98421363 rev/day

Mean motion (dot): 0.00000052 rev/day2

B* drag term: 0.00007391 1/REarth

Two-line elements (TLE)

Creation date: July 5, 2025, 11:06 p.m.

Reference frame: TEME

Reference center: EARTH

Epoch: July 5, 2025, 10:02 p.m. UTC

TLE line 0: 0 OPS 5712 (P/L 152)

TLE line 1: 1 2873U 67053G 25186.91819242 .00000052 00000-0 73910-4 0 9990

TLE line 2: 2 2873 69.9747 74.2664 0010051 251.3478 193.8004 13.98421363960752

Live tracking on map

Real-time ground track for satellite OPS 5712 (P/L 152).

In-orbit conjunctions

There are no conjunctions computed for OPS 5712 (P/L 152), at the moment. Check back to stay up to date, as we update our databases every day.

Go to all conjunctions

Associated space launch

Poppy was the follow-on ELINT system, which succeeded the Grab ELINT satellite system.

OPS 5712 (P/L 152) was lifted into orbit during the mission ‘Thor SLV-2 Agena D | Poppy 7A,B,C,D’, on board a Thor SLV-2 Agena D space rocket.

The launch took place on May 31, 1967, 9:30 a.m. from Space Launch Complex 2W.

For more information about the launch, click the button.

Launch to space Thor SLV-2 Agena D | Poppy 7A,B,C,D
Thor SLV-2 Agena D | Poppy 7A,B,C,D

Agency: N/A

Status: Launch Successful

Launch date: May 31, 1967, 9:30 a.m. UTC

Rocket: Thor SLV-2 Agena D

Launch pad: Space Launch Complex 2W

Location: Vandenberg SFB, CA, USA

...

Latest news about this satellite

There are no fresh news available about this satellite. Check back as we update our databases every day.


Newsletter sign-up

Weekly statistics, charts and insights to help you stay on top of the space industry.